| time (UTC) | temp F | wind direction | speed MPH | gust MPH | rain 1hr in | rain 24hr in | rain mn in | humidity % | barometer mb |
| 20260503201547 | 70 | 349 | 6.0 | 13.0 | 0.00 | 0.00 | 0.00 | 19 | 1018.2 |
| 20260503200046 | 71 | 222 | 7.0 | 19.0 | 0.00 | 0.00 | 0.00 | 19 | 1018.4 |
| 20260503194543 | 70 | 225 | 10.0 | 14.0 | 0.00 | 0.00 | 0.00 | 20 | 1018.5 |
| 20260503193138 | 70 | 232 | 7.0 | 16.0 | 0.00 | 0.00 | 0.00 | 20 | 1018.8 |
| 20260503191536 | 69 | 275 | 4.0 | 14.0 | 0.00 | 0.00 | 0.00 | 21 | 1018.9 |
| 20260503190042 | 68 | 136 | 5.0 | 11.0 | 0.00 | 0.00 | 0.00 | 23 | 1019.2 |
| 20260503184530 | 68 | 250 | 8.0 | 14.0 | 0.00 | 0.00 | 0.00 | 24 | 1019.5 |
| 20260503183127 | 68 | 200 | 8.0 | 15.0 | 0.00 | 0.00 | 0.00 | 24 | 1019.8 |
| 20260503181523 | 67 | 220 | 9.0 | 16.0 | 0.00 | 0.00 | 0.00 | 24 | 1020.0 |
| 20260503180021 | 66 | 220 | 7.0 | 17.0 | 0.00 | 0.00 | 0.00 | 27 | 1020.1 |
| 20260503174516 | 65 | 245 | 7.0 | 14.0 | 0.00 | 0.00 | 0.00 | 29 | 1020.3 |
| 20260503173013 | 63 | 355 | 1.0 | 12.0 | 0.00 | 0.00 | 0.00 | 34 | 1020.5 |
| 20260503171508 | 62 | 350 | 3.0 | 9.0 | 0.00 | 0.00 | 0.00 | 38 | 1020.6 |
| 20260503120104 | 39 | 37 | 0.0 | 2.0 | 0.00 | 0.00 | 0.00 | 78 | 1021.5 |
| 20260503100143 | 40 | 42 | 0.0 | 2.0 | 0.00 | 0.00 | 0.00 | 74 | 1021.6 |
| 20260503081546 | 41 | 88 | 0.0 | 0.0 | 0.00 | 0.00 | 0.00 | 73 | 1021.9 |
| 20260503071533 | 45 | 88 | 0.0 | 4.0 | 0.00 | 0.00 | 0.00 | 66 | 1022.2 |
| 20260503054543 | 47 | 112 | 6.0 | 11.0 | 0.00 | 0.00 | 0.00 | 64 | 1021.9 |
| 20260503053143 | 47 | 103 | 6.0 | 11.0 | 0.00 | 0.00 | 0.00 | 64 | 1022.0 |
| 20260503051542 | 47 | 123 | 8.0 | 12.0 | 0.00 | 0.00 | 0.00 | 63 | 1022.0 |
| 20260503050042 | 48 | 122 | 6.0 | 12.0 | 0.00 | 0.00 | 0.00 | 62 | 1021.9 |
| 20260503044544 | 48 | 112 | 7.0 | 11.0 | 0.00 | 0.00 | 0.00 | 61 | 1021.7 |
| 20260503043041 | 49 | 132 | 7.0 | 14.0 | 0.00 | 0.00 | 0.00 | 60 | 1021.6 |
| 20260503041543 | 49 | 141 | 6.0 | 12.0 | 0.00 | 0.00 | 0.00 | 58 | 1021.6 |
| 20260503040040 | 50 | 130 | 8.0 | 13.0 | 0.00 | 0.00 | 0.00 | 55 | 1021.5 |
| 20260503034539 | 50 | 132 | 5.0 | 11.0 | 0.00 | 0.00 | 0.00 | 51 | 1021.4 |
| 20260503033038 | 51 | 145 | 5.0 | 9.0 | 0.00 | 0.00 | 0.00 | 47 | 1021.2 |
| 20260503031548 | 51 | 171 | 4.0 | 7.0 | 0.00 | 0.00 | 0.00 | 44 | 1021.1 |
| 20260503030037 | 52 | 138 | 4.0 | 9.0 | 0.00 | 0.00 | 0.00 | 38 | 1020.7 |
| 20260503024536 | 53 | 150 | 5.0 | 10.0 | 0.00 | 0.00 | 0.00 | 35 | 1020.5 |
| 20260503023038 | 55 | 157 | 4.0 | 7.0 | 0.00 | 0.00 | 0.00 | 31 | 1020.3 |
| 20260503021539 | 56 | 149 | 4.0 | 8.0 | 0.00 | 0.00 | 0.00 | 30 | 1020.1 |
| 20260503020040 | 57 | 189 | 2.0 | 8.0 | 0.00 | 0.00 | 0.00 | 28 | 1020.0 |
| 20260503014536 | 59 | 170 | 3.0 | 6.0 | 0.00 | 0.00 | 0.00 | 26 | 1019.8 |
| 20260503013038 | 61 | 198 | 3.0 | 7.0 | 0.00 | 0.00 | 0.00 | 25 | 1019.7 |
| 20260503011534 | 61 | 190 | 5.0 | 9.0 | 0.00 | 0.00 | 0.00 | 23 | 1019.7 |
| 20260503010038 | 61 | 197 | 5.0 | 13.0 | 0.00 | 0.00 | 0.00 | 23 | 1019.7 |
| 20260503004532 | 62 | 140 | 5.0 | 9.0 | 0.00 | 0.00 | 0.00 | 22 | 1019.7 |
| 20260503003031 | 62 | 210 | 3.0 | 7.0 | 0.00 | 0.00 | 0.00 | 22 | 1019.6 |
| 20260503001531 | 63 | 184 | 0.0 | 5.0 | 0.00 | 0.00 | 0.00 | 21 | 1019.6 |
| 20260503000041 | 64 | 204 | 5.0 | 8.0 | 0.00 | 0.00 | 0.00 | 21 | 1019.7 |
| 20260502234531 | 66 | 201 | 6.0 | 10.0 | 0.00 | 0.03 | 0.00 | 19 | 1019.6 |
| 20260502233029 | 66 | 250 | 4.0 | 10.0 | 0.00 | 0.03 | 0.00 | 20 | 1019.7 |
| 20260502231529 | 66 | 302 | 5.0 | 11.0 | 0.00 | 0.03 | 0.00 | 19 | 1019.6 |
| 20260502230029 | 67 | 275 | 5.0 | 10.0 | 0.00 | 0.03 | 0.00 | 19 | 1019.6 |
| 20260502224525 | 68 | 245 | 6.0 | 12.0 | 0.00 | 0.03 | 0.00 | 19 | 1019.6 |
| 20260502223024 | 67 | 189 | 9.0 | 15.0 | 0.00 | 0.03 | 0.00 | 19 | 1019.8 |
| 20260502221524 | 67 | 140 | 2.0 | 10.0 | 0.00 | 0.03 | 0.00 | 19 | 1020.0 |
| 20260502220019 | 67 | 304 | 5.0 | 10.0 | 0.00 | 0.03 | 0.00 | 20 | 1020.2 |
| 20260502214514 | 65 | 260 | 5.0 | 11.0 | 0.00 | 0.03 | 0.00 | 22 | 1020.3 |
| 20260502213012 | 63 | 14 | 1.0 | 9.0 | 0.00 | 0.03 | 0.00 | 23 | 1020.6 |
| 20260502210006 | 65 | 328 | 5.0 | 9.0 | 0.00 | 0.03 | 0.00 | 22 | 1021.0 |
| 20260502204504 | 63 | 97 | 3.0 | 10.0 | 0.00 | 0.03 | 0.00 | 28 | 1021.2 |